Regional Weather Roundup
Issued by NWS Kansas City/Pleasant Hill, MO

Home | Current Version | Previous Version | Text Only | Print | Product List | Glossary On
Versions: 1 2 3 4 5 6 7 8 9 10 11 12 13 14 15 16 17 18 19 20 21 22 23 24 25 26 27
000
ASUS43 KEAX 050210
RWREAX

WEATHER ROUNDUP FOR EASTERN KANSAS AND NORTHWEST MISSOURI
NATIONAL WEATHER SERVICE KANSAS CITY/PLEASANT HILL MO
900 PM CDT WED MAY 04 2016

KSZ040-057-103>105-MOZ028-029-037-043-050300-
...KANSAS CITY METROPOLITAN AREA...

CITY           SKY/WX    TMP DP  RH WIND       PRES   REMARKS
K.C. INTL      CLEAR     58  36  43 NW6       29.98R
K.C. DOWNTOWN  CLEAR     62  35  36 N3        29.97R
LEES SUMMIT    CLEAR     61  37  41 N6        29.98R
OLATHE - IXD   CLEAR     56  40  55 NW6       29.99R
OLATHE - OJC   CLEAR     61  36  39 NW3       29.98R
LAWRENCE         N/A     57  39  51 MISG      29.99R

$$

MOZ001>008-011>017-020>025-030>033-038>040-044>046-053-054-050300-
...NORTHERN AND CENTRAL MISSOURI...

CITY           SKY/WX    TMP DP  RH WIND       PRES   REMARKS
ST. JOSEPH     CLEAR     57  39  51 CALM      29.98R
MOSBY          CLEAR     59  41  51 CALM      29.97S
WARRENSBURG    CLEAR     59  37  44 N5        29.96R
WHITEMAN AFB   CLEAR     57  39  51 N7        29.96R
CLINTON        CLEAR     55  41  58 CALM      29.97R
SEDALIA        CLEAR     60  38  43 N9        29.97R
WARSAW         NOT AVBL
CHILLICOTHE      N/A     56  41  57 CALM      29.97S
KIRKSVILLE     CLEAR     55  35  47 NW7       29.94R

$$

MOZ041-047>049-056>058-063>065-088>090-097-050300-
...EASTERN AND SOUTHERN MISSOURI...

CITY           SKY/WX    TMP DP  RH WIND       PRES   REMARKS
ST. LOUIS INTL PTCLDY    56  37  49 NW5       29.90R
SPIRIT OF STL  CLEAR     53  39  59 W3        29.90R
COLUMBIA       CLEAR     55  37  50 N8        29.94R
JEFFERSON CITY CLEAR     61  35  37 N5        29.94R
ROLLA          CLEAR     55  36  48 N5        29.91R
OSAGE BEACH    CLEAR     57  34  41 NW3       29.95R
SPRINGFIELD    CLEAR     57  38  48 N6        29.95R
BRANSON        CLEAR     63  37  39 NW8       29.96R
JOPLIN         CLEAR     59  42  53 N3        29.98R
WEST PLAINS    CLEAR     58  35  42 N5        29.93R

$$

IAZ060-094-KSZ022-034>040-054-083-096-NEZ052-066-093-050300-
...KANSAS...SOUTHEAST NEBRASKA AND IOWA...

CITY           SKY/WX    TMP DP  RH WIND       PRES   REMARKS
TOPEKA         CLEAR     60  39  45 NW3       30.00R
MANHATTAN      CLEAR     63  36  36 N3        30.01R
EMPORIA        CLEAR     60  39  45 NW5       30.01R
CHANUTE        CLEAR     63  38  39 N5        29.99R
WICHITA        CLEAR     65  35  33 N7        30.03R
OMAHA          PTCLDY    59  41  51 NW3       29.99S
LINCOLN        CLEAR     59  37  44 N5        30.02R
FALLS CITY     CLEAR     60  37  42 N3        29.99R
LAMONI         CLEAR     53  39  59 NW7       29.96S
DES MOINES     PTCLDY    61  32  33 NW8       29.94R

$$





USA.gov is the U.S. government's official web portal to all federal, state and local government web resources and services.